Cuivre River (Missouri), Troy (05514500)

StateMissouriLatestPoor (99 cfs)
RiverCuivre RiverRatingObservedEstimated
Updated2020-08-07 13:00 (7 minutes ago)Flood - The river is flooding. Obstacles can be treacherous or deadly. The river should be avoided at this stage for casual trips and definitely for the inexperienced. Trips should be attempted only with protective gear and equipment.Flood(none)2644
Discharge99 cfs (median: 39 cfs)High - The river is high and potentially dangerous, especially for the young and / or inexperienced. Normal stream obstacles are sometimes difficult to navigate. Extended distances can be attempted, but canoe travel may not be advisable.High(none)675
Height(none)Good - Conditions are ideal for a canoe or kayak. Boats typically will drag on fewer than one-quarter of riffles, if at all, and portages are unnecessary or rare. Normal float lengths can be attempted without a problem.Good(none)205
TrendRising (falling over 24 hours)Low - River is low but can still be floated. Some riffles are okay but most come with significant dragging and might need a portage. Float lengths should be reduced to accommodate low flow, dragging, and portages.Low(none)129
USGSExternal icon USGS Site (External icon Google Maps)Poor - River is too low to float comfortably. Most or all riffles will drag or must be portaged and some obstacles (such as slick shelf rock) cause undue problems. Avoid the river at this stage for casual paddling trips.Poor(none)31

Trending Data

Plot Image

Trips for Cuivre River (Missouri), Troy (05514500)

DateStartEndDistanceConditionDischargeHeightFishingDetails

A total of 0 rows are displayed.

Condition Descriptions

Fishing Conditions

Fish Species

Notes

Classic Trip List

The classic River Trips application is still available for use. It is updated with the new system using a data retrofit. It is no longer maintained. The original River Trips application is no longer updated (as of 1 Dec 2016) but can be checked for errors or for the condition of the data before it was converted to the new system.

Gauge Data Table

ObservationHeightDischargeMaximum
Discharge
Minimum
Discharge
Mean
Discharge
P05P10P20P25P50
(Median)
P75P80P90P95
2020-08-07 13:00 99 10300 (1995) 0 (1954) 281 0 4 7 10 39 161 206 771 1050
2020-08-07 12:30 5.87 98 10300 (1995) 0 (1954) 281 0 4 7 10 39 161 206 771 1050
2020-08-07 12:00 5.88 99 10300 (1995) 0 (1954) 281 0 4 7 10 39 161 206 771 1050
2020-08-07 11:30 5.88 99 10300 (1995) 0 (1954) 281 0 4 7 10 39 161 206 771 1050
2020-08-07 11:00 5.88 99 10300 (1995) 0 (1954) 281 0 4 7 10 39 161 206 771 1050
2020-08-07 10:30 5.83 91 10300 (1995) 0 (1954) 281 0 4 7 10 39 161 206 771 1050
2020-08-07 10:00 5.89 101 10300 (1995) 0 (1954) 281 0 4 7 10 39 161 206 771 1050
2020-08-07 09:30 5.89 101 10300 (1995) 0 (1954) 281 0 4 7 10 39 161 206 771 1050
2020-08-07 09:00 5.89 101 10300 (1995) 0 (1954) 281 0 4 7 10 39 161 206 771 1050
2020-08-07 08:30 5.89 101 10300 (1995) 0 (1954) 281 0 4 7 10 39 161 206 771 1050
2020-08-07 08:00 5.90 103 10300 (1995) 0 (1954) 281 0 4 7 10 39 161 206 771 1050
2020-08-07 07:30 5.90 103 10300 (1995) 0 (1954) 281 0 4 7 10 39 161 206 771 1050
2020-08-07 07:00 5.90 103 10300 (1995) 0 (1954) 281 0 4 7 10 39 161 206 771 1050
2020-08-07 06:30 5.90 103 10300 (1995) 0 (1954) 281 0 4 7 10 39 161 206 771 1050
2020-08-07 06:00 5.91 105 10300 (1995) 0 (1954) 281 0 4 7 10 39 161 206 771 1050
2020-08-07 05:30 5.91 105 10300 (1995) 0 (1954) 281 0 4 7 10 39 161 206 771 1050
2020-08-07 05:00 5.91 105 10300 (1995) 0 (1954) 281 0 4 7 10 39 161 206 771 1050
2020-08-07 04:30 5.92 107 10300 (1995) 0 (1954) 281 0 4 7 10 39 161 206 771 1050
2020-08-07 04:00 5.92 107 10300 (1995) 0 (1954) 281 0 4 7 10 39 161 206 771 1050
2020-08-07 03:30 5.92 107 10300 (1995) 0 (1954) 281 0 4 7 10 39 161 206 771 1050
2020-08-07 03:00 5.92 107 10300 (1995) 0 (1954) 281 0 4 7 10 39 161 206 771 1050
2020-08-07 02:30 5.92 107 10300 (1995) 0 (1954) 281 0 4 7 10 39 161 206 771 1050
2020-08-07 02:00 5.93 109 10300 (1995) 0 (1954) 281 0 4 7 10 39 161 206 771 1050
2020-08-07 01:30 5.93 109 10300 (1995) 0 (1954) 281 0 4 7 10 39 161 206 771 1050
2020-08-07 01:00 5.93 109 10300 (1995) 0 (1954) 281 0 4 7 10 39 161 206 771 1050
2020-08-07 00:30 5.94 111 10300 (1995) 0 (1954) 281 0 4 7 10 39 161 206 771 1050
2020-08-07 00:00 5.94 111 10300 (1995) 0 (1954) 281 0 4 7 10 39 161 206 771 1050
2020-08-06 23:30 5.94 111 14400 (1923) 0 (1934) 464 0 5 8 11 46 108 214 920 2380
2020-08-06 23:00 5.94 111 14400 (1923) 0 (1934) 464 0 5 8 11 46 108 214 920 2380
2020-08-06 22:30 5.95 113 14400 (1923) 0 (1934) 464 0 5 8 11 46 108 214 920 2380
2020-08-06 22:00 5.95 113 14400 (1923) 0 (1934) 464 0 5 8 11 46 108 214 920 2380
2020-08-06 21:30 5.95 113 14400 (1923) 0 (1934) 464 0 5 8 11 46 108 214 920 2380
2020-08-06 21:00 5.95 113 14400 (1923) 0 (1934) 464 0 5 8 11 46 108 214 920 2380
2020-08-06 20:30 5.96 115 14400 (1923) 0 (1934) 464 0 5 8 11 46 108 214 920 2380
2020-08-06 20:00 5.96 115 14400 (1923) 0 (1934) 464 0 5 8 11 46 108 214 920 2380
2020-08-06 19:30 5.97 117 14400 (1923) 0 (1934) 464 0 5 8 11 46 108 214 920 2380
2020-08-06 19:00 5.97 117 14400 (1923) 0 (1934) 464 0 5 8 11 46 108 214 920 2380
2020-08-06 18:30 5.98 119 14400 (1923) 0 (1934) 464 0 5 8 11 46 108 214 920 2380
2020-08-06 18:00 5.98 119 14400 (1923) 0 (1934) 464 0 5 8 11 46 108 214 920 2380
2020-08-06 17:30 5.99 121 14400 (1923) 0 (1934) 464 0 5 8 11 46 108 214 920 2380
2020-08-06 17:00 5.98 119 14400 (1923) 0 (1934) 464 0 5 8 11 46 108 214 920 2380
2020-08-06 16:30 6.00 123 14400 (1923) 0 (1934) 464 0 5 8 11 46 108 214 920 2380
2020-08-06 16:00 6.00 123 14400 (1923) 0 (1934) 464 0 5 8 11 46 108 214 920 2380
2020-08-06 15:30 6.00 123 14400 (1923) 0 (1934) 464 0 5 8 11 46 108 214 920 2380
2020-08-06 15:00 6.01 125 14400 (1923) 0 (1934) 464 0 5 8 11 46 108 214 920 2380
2020-08-06 14:30 6.01 125 14400 (1923) 0 (1934) 464 0 5 8 11 46 108 214 920 2380
2020-08-06 14:00 6.01 125 14400 (1923) 0 (1934) 464 0 5 8 11 46 108 214 920 2380
2020-08-06 13:30 6.01 125 14400 (1923) 0 (1934) 464 0 5 8 11 46 108 214 920 2380
2020-08-06 13:00 5.98 119 14400 (1923) 0 (1934) 464 0 5 8 11 46 108 214 920 2380
2020-08-06 12:30 6.00 123 14400 (1923) 0 (1934) 464 0 5 8 11 46 108 214 920 2380
2020-08-06 12:00 6.01 125 14400 (1923) 0 (1934) 464 0 5 8 11 46 108 214 920 2380
2020-08-06 11:30 6.01 125 14400 (1923) 0 (1934) 464 0 5 8 11 46 108 214 920 2380
2020-08-06 11:00 5.97 117 14400 (1923) 0 (1934) 464 0 5 8 11 46 108 214 920 2380
2020-08-06 10:30 6.02 127 14400 (1923) 0 (1934) 464 0 5 8 11 46 108 214 920 2380
2020-08-06 10:00 6.02 127 14400 (1923) 0 (1934) 464 0 5 8 11 46 108 214 920 2380
2020-08-06 09:30 6.02 127 14400 (1923) 0 (1934) 464 0 5 8 11 46 108 214 920 2380
2020-08-06 09:00 6.03 129 14400 (1923) 0 (1934) 464 0 5 8 11 46 108 214 920 2380
2020-08-06 08:30 6.03 129 14400 (1923) 0 (1934) 464 0 5 8 11 46 108 214 920 2380
2020-08-06 08:00 6.04 132 14400 (1923) 0 (1934) 464 0 5 8 11 46 108 214 920 2380
2020-08-06 07:30 6.04 132 14400 (1923) 0 (1934) 464 0 5 8 11 46 108 214 920 2380
2020-08-06 07:00 6.04 132 14400 (1923) 0 (1934) 464 0 5 8 11 46 108 214 920 2380
2020-08-06 06:30 6.05 134 14400 (1923) 0 (1934) 464 0 5 8 11 46 108 214 920 2380
2020-08-06 06:00 6.05 134 14400 (1923) 0 (1934) 464 0 5 8 11 46 108 214 920 2380
2020-08-06 05:30 6.05 134 14400 (1923) 0 (1934) 464 0 5 8 11 46 108 214 920 2380
2020-08-06 05:00 6.06 136 14400 (1923) 0 (1934) 464 0 5 8 11 46 108 214 920 2380
2020-08-06 04:30 6.06 136 14400 (1923) 0 (1934) 464 0 5 8 11 46 108 214 920 2380
2020-08-06 04:00 6.07 138 14400 (1923) 0 (1934) 464 0 5 8 11 46 108 214 920 2380
2020-08-06 03:30 6.07 138 14400 (1923) 0 (1934) 464 0 5 8 11 46 108 214 920 2380
2020-08-06 03:00 6.07 138 14400 (1923) 0 (1934) 464 0 5 8 11 46 108 214 920 2380
2020-08-06 02:30 6.08 141 14400 (1923) 0 (1934) 464 0 5 8 11 46 108 214 920 2380
2020-08-06 02:00 6.08 141 14400 (1923) 0 (1934) 464 0 5 8 11 46 108 214 920 2380
2020-08-06 01:30 6.08 141 14400 (1923) 0 (1934) 464 0 5 8 11 46 108 214 920 2380
2020-08-06 01:00 6.09 143 14400 (1923) 0 (1934) 464 0 5 8 11 46 108 214 920 2380
2020-08-06 00:30 6.09 143 14400 (1923) 0 (1934) 464 0 5 8 11 46 108 214 920 2380
2020-08-06 00:00 6.10 146 14400 (1923) 0 (1934) 464 0 5 8 11 46 108 214 920 2380
2020-08-05 23:30 6.10 146 4510 (2016) 0 (1954) 215 0 5 8 10 41 132 167 417 1320
2020-08-05 23:00 6.10 146 4510 (2016) 0 (1954) 215 0 5 8 10 41 132 167 417 1320
2020-08-05 22:30 6.11 148 4510 (2016) 0 (1954) 215 0 5 8 10 41 132 167 417 1320
2020-08-05 22:00 6.11 148 4510 (2016) 0 (1954) 215 0 5 8 10 41 132 167 417 1320
2020-08-05 21:30 6.12 150 4510 (2016) 0 (1954) 215 0 5 8 10 41 132 167 417 1320
2020-08-05 21:00 6.12 150 4510 (2016) 0 (1954) 215 0 5 8 10 41 132 167 417 1320
2020-08-05 20:30 6.12 150 4510 (2016) 0 (1954) 215 0 5 8 10 41 132 167 417 1320
2020-08-05 20:00 6.13 153 4510 (2016) 0 (1954) 215 0 5 8 10 41 132 167 417 1320
2020-08-05 19:30 6.14 155 4510 (2016) 0 (1954) 215 0 5 8 10 41 132 167 417 1320
2020-08-05 19:00 6.14 155 4510 (2016) 0 (1954) 215 0 5 8 10 41 132 167 417 1320
2020-08-05 18:30 6.15 158 4510 (2016) 0 (1954) 215 0 5 8 10 41 132 167 417 1320
2020-08-05 18:00 6.14 155 4510 (2016) 0 (1954) 215 0 5 8 10 41 132 167 417 1320
2020-08-05 17:30 6.12 150 4510 (2016) 0 (1954) 215 0 5 8 10 41 132 167 417 1320
2020-08-05 17:00 6.17 163 4510 (2016) 0 (1954) 215 0 5 8 10 41 132 167 417 1320
2020-08-05 16:30 6.18 166 4510 (2016) 0 (1954) 215 0 5 8 10 41 132 167 417 1320
2020-08-05 16:00 6.12 150 4510 (2016) 0 (1954) 215 0 5 8 10 41 132 167 417 1320
2020-08-05 15:30 6.18 166 4510 (2016) 0 (1954) 215 0 5 8 10 41 132 167 417 1320
2020-08-05 15:00 6.19 168 4510 (2016) 0 (1954) 215 0 5 8 10 41 132 167 417 1320
2020-08-05 14:30 6.20 171 4510 (2016) 0 (1954) 215 0 5 8 10 41 132 167 417 1320
2020-08-05 14:00 6.20 171 4510 (2016) 0 (1954) 215 0 5 8 10 41 132 167 417 1320
2020-08-05 13:30 6.21 174 4510 (2016) 0 (1954) 215 0 5 8 10 41 132 167 417 1320
2020-08-05 13:00 6.21 174 4510 (2016) 0 (1954) 215 0 5 8 10 41 132 167 417 1320
2020-08-05 12:30 6.21 174 4510 (2016) 0 (1954) 215 0 5 8 10 41 132 167 417 1320
2020-08-05 12:00 6.21 174 4510 (2016) 0 (1954) 215 0 5 8 10 41 132 167 417 1320
2020-08-05 11:30 6.22 176 4510 (2016) 0 (1954) 215 0 5 8 10 41 132 167 417 1320
2020-08-05 11:00 6.22 176 4510 (2016) 0 (1954) 215 0 5 8 10 41 132 167 417 1320
2020-08-05 10:30 6.22 176 4510 (2016) 0 (1954) 215 0 5 8 10 41 132 167 417 1320
2020-08-05 10:00 6.22 176 4510 (2016) 0 (1954) 215 0 5 8 10 41 132 167 417 1320
2020-08-05 09:30 6.23 179 4510 (2016) 0 (1954) 215 0 5 8 10 41 132 167 417 1320
2020-08-05 09:00 6.24 182 4510 (2016) 0 (1954) 215 0 5 8 10 41 132 167 417 1320
2020-08-05 08:30 6.25 185 4510 (2016) 0 (1954) 215 0 5 8 10 41 132 167 417 1320
2020-08-05 08:00 6.26 188 4510 (2016) 0 (1954) 215 0 5 8 10 41 132 167 417 1320
2020-08-05 07:30 6.27 191 4510 (2016) 0 (1954) 215 0 5 8 10 41 132 167 417 1320
2020-08-05 07:00 6.27 191 4510 (2016) 0 (1954) 215 0 5 8 10 41 132 167 417 1320
2020-08-05 06:30 6.28 194 4510 (2016) 0 (1954) 215 0 5 8 10 41 132 167 417 1320
2020-08-05 06:00 6.28 194 4510 (2016) 0 (1954) 215 0 5 8 10 41 132 167 417 1320
2020-08-05 05:30 6.29 197 4510 (2016) 0 (1954) 215 0 5 8 10 41 132 167 417 1320
2020-08-05 05:00 6.29 197 4510 (2016) 0 (1954) 215 0 5 8 10 41 132 167 417 1320
2020-08-05 04:30 6.30 200 4510 (2016) 0 (1954) 215 0 5 8 10 41 132 167 417 1320
2020-08-05 04:00 6.31 203 4510 (2016) 0 (1954) 215 0 5 8 10 41 132 167 417 1320
2020-08-05 03:30 6.31 203 4510 (2016) 0 (1954) 215 0 5 8 10 41 132 167 417 1320
2020-08-05 03:00 6.32 206 4510 (2016) 0 (1954) 215 0 5 8 10 41 132 167 417 1320
2020-08-05 02:30 6.33 209 4510 (2016) 0 (1954) 215 0 5 8 10 41 132 167 417 1320
2020-08-05 02:00 6.34 212 4510 (2016) 0 (1954) 215 0 5 8 10 41 132 167 417 1320
2020-08-05 01:30 6.34 212 4510 (2016) 0 (1954) 215 0 5 8 10 41 132 167 417 1320
2020-08-05 01:00 6.35 215 4510 (2016) 0 (1954) 215 0 5 8 10 41 132 167 417 1320
2020-08-05 00:30 6.36 218 4510 (2016) 0 (1954) 215 0 5 8 10 41 132 167 417 1320
2020-08-05 00:00 6.36 218 4510 (2016) 0 (1954) 215 0 5 8 10 41 132 167 417 1320
2020-08-04 23:30 6.37 222 5760 (1968) 0 (1954) 199 0 4 8 10 29 96 131 278 728
2020-08-04 23:00 6.38 225 5760 (1968) 0 (1954) 199 0 4 8 10 29 96 131 278 728
2020-08-04 22:30 6.38 225 5760 (1968) 0 (1954) 199 0 4 8 10 29 96 131 278 728
2020-08-04 22:00 6.39 228 5760 (1968) 0 (1954) 199 0 4 8 10 29 96 131 278 728
2020-08-04 21:30 232 5760 (1968) 0 (1954) 199 0 4 8 10 29 96 131 278 728
2020-08-04 21:00 6.41 235 5760 (1968) 0 (1954) 199 0 4 8 10 29 96 131 278 728
2020-08-04 20:30 6.41 235 5760 (1968) 0 (1954) 199 0 4 8 10 29 96 131 278 728
2020-08-04 20:00 6.42 238 5760 (1968) 0 (1954) 199 0 4 8 10 29 96 131 278 728
2020-08-04 19:30 6.43 242 5760 (1968) 0 (1954) 199 0 4 8 10 29 96 131 278 728
2020-08-04 19:00 6.43 242 5760 (1968) 0 (1954) 199 0 4 8 10 29 96 131 278 728
2020-08-04 18:30 6.44 245 5760 (1968) 0 (1954) 199 0 4 8 10 29 96 131 278 728
2020-08-04 18:00 6.45 249 5760 (1968) 0 (1954) 199 0 4 8 10 29 96 131 278 728
2020-08-04 17:30 6.46 252 5760 (1968) 0 (1954) 199 0 4 8 10 29 96 131 278 728
2020-08-04 17:00 6.47 256 5760 (1968) 0 (1954) 199 0 4 8 10 29 96 131 278 728
2020-08-04 16:30 6.48 260 5760 (1968) 0 (1954) 199 0 4 8 10 29 96 131 278 728
2020-08-04 16:00 6.48 260 5760 (1968) 0 (1954) 199 0 4 8 10 29 96 131 278 728
2020-08-04 15:30 6.49 263 5760 (1968) 0 (1954) 199 0 4 8 10 29 96 131 278 728
2020-08-04 15:00 6.50 267 5760 (1968) 0 (1954) 199 0 4 8 10 29 96 131 278 728
2020-08-04 14:30 6.51 270 5760 (1968) 0 (1954) 199 0 4 8 10 29 96 131 278 728
2020-08-04 14:00 6.51 270 5760 (1968) 0 (1954) 199 0 4 8 10 29 96 131 278 728
2020-08-04 13:30 6.52 273 5760 (1968) 0 (1954) 199 0 4 8 10 29 96 131 278 728
2020-08-04 13:00 6.53 276 5760 (1968) 0 (1954) 199 0 4 8 10 29 96 131 278 728
2020-08-04 12:30 6.54 279 5760 (1968) 0 (1954) 199 0 4 8 10 29 96 131 278 728
2020-08-04 12:00 6.55 282 5760 (1968) 0 (1954) 199 0 4 8 10 29 96 131 278 728
2020-08-04 11:30 6.56 285 5760 (1968) 0 (1954) 199 0 4 8 10 29 96 131 278 728
2020-08-04 11:00 6.57 288 5760 (1968) 0 (1954) 199 0 4 8 10 29 96 131 278 728
2020-08-04 10:30 6.57 288 5760 (1968) 0 (1954) 199 0 4 8 10 29 96 131 278 728
2020-08-04 10:00 6.58 291 5760 (1968) 0 (1954) 199 0 4 8 10 29 96 131 278 728
2020-08-04 09:30 6.59 294 5760 (1968) 0 (1954) 199 0 4 8 10 29 96 131 278 728
2020-08-04 09:00 6.60 297 5760 (1968) 0 (1954) 199 0 4 8 10 29 96 131 278 728
2020-08-04 08:30 6.61 301 5760 (1968) 0 (1954) 199 0 4 8 10 29 96 131 278 728
2020-08-04 08:00 6.63 307 5760 (1968) 0 (1954) 199 0 4 8 10 29 96 131 278 728
2020-08-04 07:30 6.64 310 5760 (1968) 0 (1954) 199 0 4 8 10 29 96 131 278 728
2020-08-04 07:00 6.65 313 5760 (1968) 0 (1954) 199 0 4 8 10 29 96 131 278 728
2020-08-04 06:30 6.66 317 5760 (1968) 0 (1954) 199 0 4 8 10 29 96 131 278 728
2020-08-04 06:00 6.67 320 5760 (1968) 0 (1954) 199 0 4 8 10 29 96 131 278 728
2020-08-04 05:30 6.68 323 5760 (1968) 0 (1954) 199 0 4 8 10 29 96 131 278 728
2020-08-04 05:00 6.69 327 5760 (1968) 0 (1954) 199 0 4 8 10 29 96 131 278 728
2020-08-04 04:30 6.70 330 5760 (1968) 0 (1954) 199 0 4 8 10 29 96 131 278 728
2020-08-04 04:00 6.70 330 5760 (1968) 0 (1954) 199 0 4 8 10 29 96 131 278 728
2020-08-04 03:30 6.72 337 5760 (1968) 0 (1954) 199 0 4 8 10 29 96 131 278 728
2020-08-04 03:00 6.73 340 5760 (1968) 0 (1954) 199 0 4 8 10 29 96 131 278 728
2020-08-04 02:30 6.73 340 5760 (1968) 0 (1954) 199 0 4 8 10 29 96 131 278 728
2020-08-04 02:00 6.74 344 5760 (1968) 0 (1954) 199 0 4 8 10 29 96 131 278 728
2020-08-04 01:30 6.75 347 5760 (1968) 0 (1954) 199 0 4 8 10 29 96 131 278 728
2020-08-04 01:00 6.75 347 5760 (1968) 0 (1954) 199 0 4 8 10 29 96 131 278 728
2020-08-04 00:30 6.76 351 5760 (1968) 0 (1954) 199 0 4 8 10 29 96 131 278 728
2020-08-04 00:00 6.75 347 5760 (1968) 0 (1954) 199 0 4 8 10 29 96 131 278 728

A total of 171 rows are displayed for years 1922 through 2019.